TimeAKDT,TemperatureF,Dew PointF,Humidity,Sea Level PressureIn,VisibilityMPH,Wind Direction,Wind SpeedMPH,Gust SpeedMPH,PrecipitationIn,Events,Conditions,WindDirDegrees,DateUTC
12:53 AM,57.0,55.0,93,30.08,10.0,Calm,Calm,-,N/A,,Overcast,0,2013-08-06 08:53:00
1:10 AM,57.2,55.4,94,30.08,10.0,Calm,Calm,-,N/A,,Overcast,0,2013-08-06 09:10:00
1:53 AM,55.9,54.0,93,30.08,2.5,Calm,Calm,-,N/A,,Overcast,0,2013-08-06 09:53:00
2:02 AM,57.2,53.6,88,30.09,9.0,Calm,Calm,-,N/A,,Overcast,0,2013-08-06 10:02:00
2:42 AM,55.4,53.6,94,30.07,1.8,Calm,Calm,-,N/A,,Overcast,0,2013-08-06 10:42:00
2:53 AM,54.0,53.1,97,30.08,1.0,Calm,Calm,-,N/A,,Overcast,0,2013-08-06 10:53:00
3:08 AM,53.6,53.6,100,30.07,1.8,Calm,Calm,-,N/A,,Overcast,0,2013-08-06 11:08:00
3:10 AM,53.6,53.6,100,30.07,4.0,Calm,Calm,-,N/A,,Overcast,0,2013-08-06 11:10:00
3:41 AM,55.4,53.6,94,30.07,2.5,Calm,Calm,-,N/A,,Overcast,0,2013-08-06 11:41:00
3:43 AM,53.6,53.6,100,30.09,1.0,Calm,Calm,-,N/A,,Overcast,0,2013-08-06 11:43:00
3:51 AM,53.6,51.8,94,30.09,0.8,Calm,Calm,-,N/A,,Overcast,0,2013-08-06 11:51:00
3:53 AM,54.0,53.1,97,30.09,1.0,Calm,Calm,-,N/A,,Overcast,0,2013-08-06 11:53:00
3:58 AM,55.4,53.6,94,30.08,2.0,Calm,Calm,-,N/A,,Overcast,0,2013-08-06 11:58:00
4:09 AM,55.4,53.6,94,30.07,10.0,Calm,Calm,-,N/A,,Overcast,0,2013-08-06 12:09:00
4:17 AM,55.4,53.6,94,30.08,10.0,Calm,Calm,-,N/A,,Overcast,0,2013-08-06 12:17:00
4:36 AM,53.6,51.8,94,30.08,1.8,Calm,Calm,-,N/A,,Overcast,0,2013-08-06 12:36:00
4:46 AM,55.4,51.8,88,30.09,3.0,Calm,Calm,-,N/A,,Overcast,0,2013-08-06 12:46:00
4:53 AM,55.9,53.1,90,30.08,10.0,Calm,Calm,-,N/A,,Overcast,0,2013-08-06 12:53:00
5:13 AM,55.4,53.6,94,30.08,7.0,Calm,Calm,-,N/A,,Overcast,0,2013-08-06 13:13:00
5:16 AM,53.6,53.6,100,30.08,1.2,Calm,Calm,-,N/A,,Overcast,0,2013-08-06 13:16:00
5:25 AM,53.6,51.8,94,30.08,1.8,Calm,Calm,-,N/A,,Overcast,0,2013-08-06 13:25:00
5:27 AM,53.6,51.8,94,30.08,5.0,Calm,Calm,-,N/A,,Overcast,0,2013-08-06 13:27:00
5:35 AM,55.4,53.6,94,30.09,10.0,Calm,Calm,-,N/A,,Overcast,0,2013-08-06 13:35:00
5:53 AM,55.9,54.0,93,30.08,10.0,Calm,Calm,-,N/A,,Overcast,0,2013-08-06 13:53:00
6:10 AM,55.4,53.6,94,30.08,10.0,Calm,Calm,-,N/A,,Overcast,0,2013-08-06 14:10:00
6:20 AM,55.4,53.6,94,30.08,10.0,Calm,Calm,-,N/A,,Overcast,0,2013-08-06 14:20:00
6:36 AM,55.4,53.6,94,30.10,10.0,Calm,Calm,-,N/A,,Overcast,0,2013-08-06 14:36:00
6:53 AM,55.9,53.1,90,30.08,10.0,Calm,Calm,-,N/A,,Overcast,0,2013-08-06 14:53:00
7:08 AM,57.2,53.6,88,30.08,10.0,Calm,Calm,-,N/A,,Overcast,0,2013-08-06 15:08:00
7:16 AM,57.2,53.6,88,30.08,10.0,Calm,Calm,-,N/A,,Overcast,0,2013-08-06 15:16:00
7:53 AM,57.0,54.0,89,30.08,10.0,Calm,Calm,-,N/A,,Overcast,0,2013-08-06 15:53:00
8:53 AM,62.1,54.0,75,30.08,10.0,Calm,Calm,-,N/A,,Overcast,0,2013-08-06 16:53:00
9:53 AM,63.0,54.0,72,30.06,10.0,SSW,3.5,-,N/A,,Scattered Clouds,210,2013-08-06 17:53:00
10:53 AM,64.0,53.1,67,30.04,10.0,SSW,4.6,-,N/A,,Clear,200,2013-08-06 18:53:00
11:53 AM,57.0,52.0,83,30.03,10.0,SW,6.9,-,N/A,,Clear,230,2013-08-06 19:53:00
12:53 PM,57.0,52.0,83,30.01,10.0,SW,9.2,-,N/A,,Clear,220,2013-08-06 20:53:00
1:53 PM,60.1,51.1,72,29.99,10.0,SW,13.8,20.7,N/A,,Clear,230,2013-08-06 21:53:00
2:53 PM,66.9,53.1,61,29.97,10.0,SSW,18.4,-,N/A,,Clear,210,2013-08-06 22:53:00
3:53 PM,64.9,53.1,65,29.95,10.0,SW,21.9,-,N/A,,Clear,220,2013-08-06 23:53:00
4:53 PM,66.9,53.1,61,29.94,10.0,SSW,25.3,-,N/A,,Clear,210,2013-08-07 00:53:00
5:53 PM,69.1,53.1,57,29.94,10.0,SSW,21.9,28.8,N/A,,Clear,210,2013-08-07 01:53:00
6:53 PM,64.9,53.1,65,29.94,10.0,SW,18.4,-,N/A,,Clear,220,2013-08-07 02:53:00
7:53 PM,63.0,52.0,67,29.95,10.0,SSW,16.1,-,N/A,,Clear,210,2013-08-07 03:53:00
8:53 PM,63.0,51.1,65,29.98,10.0,Calm,Calm,-,N/A,,Clear,0,2013-08-07 04:53:00
9:53 PM,60.1,52.0,75,29.99,10.0,NNE,3.5,-,N/A,,Clear,30,2013-08-07 05:53:00
10:53 PM,57.9,51.1,78,30.00,10.0,Calm,Calm,-,N/A,,Clear,0,2013-08-07 06:53:00
11:53 PM,55.9,51.1,84,30.00,10.0,Calm,Calm,-,N/A,,Clear,0,2013-08-07 07:53:00